Weather History for Newark, NJ

Change the Weather History Date:

Monday, January 7, 2013

  Actual Average Record
Temperature  
Mean Temperature 39 °F 32 °F  
Max Temperature 47 °F 39 °F 64 °F (2012)
Min Temperature 31 °F 25 °F 3 °F (2014)
Degree Days  
Heating Degree Days 26 33  
Month to date heating degree days 209 230  
Since 1 July heating degree days 1818 1980  
Cooling Degree Days 0 0  
Month to date cooling degree days 0 0  
Year to date cooling degree days 0 0  
Moisture  
Dew Point 24 °F    
Average Humidity 54    
Maximum Humidity 75    
Minimum Humidity 33    
Precipitation  
Precipitation 0.00 in 0.12 in 1.44 in (1996)
Month to date precipitation T 0.83  
Year to date precipitation T 0.83  
Snow  
Snow 0.00 in 0.30 in 18.00 in (1996)
Month to date snowfall T 1.7  
Since 1 July snowfall 8.5 7.5  
Snow Depth 0.00 in    
Sea Level Pressure  
Sea Level Pressure 30.28 in    
Wind  
Wind Speed 7 mph (WNW)    
Max Wind Speed 21 mph    
Max Gust Speed 26 mph    
Visibility 10 miles    
Events      
T = Trace of Precipitation, MM = Missing Value Source: NWS Daily Summary

Daily Weather History Graph

Daily Weather History Graph

Search for Another Location

Airport:

Trip Planner

Search our weather history database for the weather conditions in past years. The results will help you decide how hot, cold, wet, or windy it might be!

Date:

Astronomy

Jan. 07, 2013 Rise Set
Actual Time 7:20 AM EST 4:45 PM EST
Civil Twilight 6:50 AM EST 5:16 PM EST
Nautical Twilight 6:15 AM EST 5:50 PM EST
Astronomical Twilight 5:42 AM EST 6:23 PM EST
Moon 2:41 AM EST (1/7) 12:55 PM EST (1/7)
Length of Visible Light 10h 26m
Length of Day
9h 25m
Waning Crescent, 23% of the Moon is Illuminated
Jan 7
Waning Crescent
Jan 11
New
Jan 18
First Quarter
Jan 26
Full
Feb 3
Last Quarter

Hourly Weather History & Observations

Time (EST) Temp. Windchill Dew Point Humidity Pressure Visibility Wind Dir Wind Speed Gust Speed Precip Events Conditions
12:51 AM 39.9 °F 34.5 °F 27.0 °F 60% 30.07 in 10.0 mi West 8.1 mph - N/A   Scattered Clouds
1:51 AM 37.9 °F 32.1 °F 27.0 °F 65% 30.09 in 10.0 mi West 8.1 mph - N/A   Partly Cloudy
2:51 AM 36.0 °F 30.3 °F 27.0 °F 70% 30.10 in 10.0 mi West 6.9 mph - N/A   Partly Cloudy
3:51 AM 37.0 °F 31.6 °F 28.0 °F 70% 30.12 in 10.0 mi West 6.9 mph - N/A   Partly Cloudy
4:51 AM 36.0 °F 29.0 °F 28.0 °F 73% 30.14 in 10.0 mi West 9.2 mph - N/A   Overcast
5:51 AM 35.1 °F 31.0 °F 27.0 °F 72% 30.17 in 10.0 mi WNW 4.6 mph - N/A   Scattered Clouds
6:51 AM 36.0 °F 30.3 °F 28.0 °F 73% 30.22 in 10.0 mi West 6.9 mph - N/A   Partly Cloudy
7:51 AM 37.9 °F 32.1 °F 28.9 °F 70% 30.25 in 10.0 mi WSW 8.1 mph - N/A   Scattered Clouds
8:51 AM 39.9 °F 35.8 °F 28.9 °F 65% 30.27 in 10.0 mi West 5.8 mph - N/A   Scattered Clouds
9:51 AM 44.1 °F 37.4 °F 27.0 °F 51% 30.30 in 10.0 mi WNW 13.8 mph 23.0 mph N/A   Scattered Clouds
10:51 AM 44.6 °F 37.8 °F 24.8 °F 46% 30.32 in 10.0 mi NW 15.0 mph 21.9 mph N/A   Partly Cloudy
11:51 AM 46.0 °F 40.6 °F 23.0 °F 40% 30.32 in 10.0 mi WNW 11.5 mph 20.7 mph N/A   Partly Cloudy
12:51 PM 46.9 °F - 21.9 °F 37% 30.33 in 10.0 mi WNW 15.0 mph 24.2 mph N/A   Partly Cloudy
1:51 PM 46.0 °F 40.6 °F 19.9 °F 35% 30.33 in 10.0 mi North 11.5 mph - N/A   Partly Cloudy
2:51 PM 46.9 °F - 19.9 °F 34% 30.35 in 10.0 mi WNW 11.5 mph 20.7 mph N/A   Partly Cloudy
3:51 PM 45.0 °F 40.6 °F 18.0 °F 34% 30.37 in 10.0 mi NW 8.1 mph - N/A   Partly Cloudy
4:51 PM 43.0 °F 38.8 °F 18.0 °F 37% 30.38 in 10.0 mi NNW 6.9 mph - N/A   Partly Cloudy
5:51 PM 42.1 °F 40.2 °F 18.0 °F 38% 30.39 in 10.0 mi NW 3.5 mph - N/A   Clear
6:51 PM 41.0 °F 38.0 °F 19.0 °F 41% 30.40 in 10.0 mi NW 4.6 mph - N/A   Clear
7:51 PM 39.9 °F - 21.0 °F 47% 30.40 in 10.0 mi Calm Calm - N/A   Clear
8:51 PM 39.9 °F - 21.0 °F 47% 30.39 in 10.0 mi Calm Calm - N/A   Clear
9:51 PM 37.0 °F - 24.1 °F 59% 30.39 in 10.0 mi Calm Calm - N/A   Clear
10:51 PM 36.0 °F 33.3 °F 23.0 °F 59% 30.40 in 10.0 mi SW 3.5 mph - N/A   Clear
11:51 PM 32.0 °F 25.6 °F 23.0 °F 69% 30.40 in 10.0 mi SSW 6.9 mph - N/A   Clear